Location: Newark
(35.8833°N, 14.5000°E)
Time: 17:14:07
(UTC+00:00)

Tiros 1 despin weight - All Passes

Search period start: 14 November 2019 00:00
Search period end: 24 November 2019 00:00
Orbit: 594 x 642 km, 48.2° (Epoch: 14 November)

Date Brightness Start Highest point End Pass type
(mag) Time Alt. Az. Time Alt. Az. Time Alt. Az.
14 Nov - 12:53:55 10° SSW 12:58:05 43° SE 13:02:17 10° ENE daylight
14 Nov - 14:35:35 10° W 14:39:41 36° NNW 14:43:50 10° NE daylight
14 Nov - 16:19:12 10° NW 16:22:13 17° N 16:25:15 10° NE visible
14 Nov - 18:01:35 10° NW 18:05:02 21° NNE 18:08:31 10° ENE visible
14 Nov - 19:42:44 10° NW 19:47:16 62° NNE 19:51:50 10° ESE visible
14 Nov - 21:24:58 10° W 21:28:32 22° SW 21:32:08 10° S night (unlit)
15 Nov - 11:31:31 10° SSE 11:33:34 13° SE 11:35:38 10° E daylight
15 Nov - 13:10:10 10° SW 13:14:33 89° SSE 13:19:01 10° NE daylight
15 Nov - 14:52:55 10° WNW 14:56:33 24° NNW 15:00:14 10° NE daylight
15 Nov - 16:36:24 10° NW 16:39:19 17° N 16:42:15 10° NE visible
15 Nov - 18:18:02 10° NW 18:21:59 28° NNE 18:25:58 10° E visible
15 Nov - 19:59:18 10° WNW 20:03:51 70° SW 20:08:25 10° SE night (unlit)
15 Nov - 21:44:19 10° WSW 21:44:47 10° SW 21:45:13 10° SW night (unlit)
16 Nov - 11:46:04 10° SSW 11:49:50 28° SE 11:53:37 10° ENE daylight
16 Nov - 13:26:56 10° WSW 13:31:12 49° NNW 13:35:32 10° NE daylight
16 Nov - 15:10:22 10° WNW 15:13:33 19° N 15:16:46 10° NE daylight
16 Nov - 16:53:13 10° NW 16:56:23 18° N 16:59:35 10° NE visible
16 Nov - 18:34:26 10° NW 18:38:48 45° NNE 18:43:11 10° ESE visible
16 Nov - 20:16:10 10° WNW 20:20:16 34° SW 20:24:26 10° SSE night (unlit)
17 Nov - 12:01:54 10° SW 12:06:13 59° SE 12:10:34 10° ENE daylight
17 Nov - 13:44:05 10° W 13:47:59 30° NNW 13:51:55 10° NE daylight
17 Nov - 15:27:43 10° NW 15:30:37 17° N 15:33:32 10° NE daylight
17 Nov - 17:09:46 10° NW 17:13:24 23° NNE 17:17:04 10° ENE visible
17 Nov - 18:50:55 10° NW 18:55:27 81° NE 19:00:04 10° ESE visible
17 Nov - 20:33:44 10° W 20:36:35 16° SW 20:39:26 10° S night (unlit)
18 Nov - 10:38:36 10° S 10:41:37 18° SE 10:44:39 10° E daylight
18 Nov - 12:18:23 10° WSW 12:22:46 69° NW 12:27:11 10° NE daylight
18 Nov - 14:01:30 10° WNW 14:04:55 21° NNW 14:08:22 10° NE daylight
18 Nov - 15:44:46 10° NW 15:47:43 17° N 15:50:41 10° NE daylight
18 Nov - 17:26:11 10° NW 17:30:17 34° NNE 17:34:26 10° E visible
18 Nov - 19:07:35 10° WNW 19:11:58 51° SW 19:16:25 10° SE visible
19 Nov - 10:53:52 10° SSW 10:57:56 38° SE 11:02:01 10° ENE daylight
19 Nov - 12:35:20 10° W 12:39:28 39° NNW 12:43:38 10° NE daylight
19 Nov - 14:18:56 10° NW 14:21:56 17° N 14:24:58 10° NE daylight
19 Nov - 16:01:27 10° NW 16:04:46 20° NNE 16:08:06 10° ENE daylight
19 Nov - 17:42:36 10° NW 17:47:02 56° NNE 17:51:31 10° ESE visible
19 Nov - 19:24:39 10° WNW 19:28:21 25° SW 19:32:04 10° S visible
20 Nov - 09:32:00 10° SSE 09:33:26 11° SE 09:34:53 10° ESE daylight
20 Nov - 11:10:00 10° SW 11:14:23 81° SE 11:18:48 10° NE daylight
20 Nov - 12:52:37 10° WNW 12:56:19 25° NNW 13:00:02 10° NE daylight
20 Nov - 14:36:11 10° NW 14:39:02 16° N 14:41:54 10° NE daylight
20 Nov - 16:17:55 10° NW 16:21:43 27° NNE 16:25:34 10° E visible
20 Nov - 17:59:08 10° WNW 18:03:37 77° SW 18:08:11 10° SE visible
20 Nov - 19:43:07 10° WSW 19:44:36 11° SW 19:46:06 10° SSW visible
21 Nov - 09:46:05 10° S 09:49:41 25° SE 09:53:18 10° ENE daylight
21 Nov - 11:26:41 10° WSW 11:30:59 53° NNW 11:35:19 10° NE daylight
21 Nov - 13:10:05 10° WNW 13:13:17 19° NNW 13:16:31 10° NE daylight
21 Nov - 14:53:03 10° NW 14:56:07 18° N 14:59:10 10° NE daylight
21 Nov - 16:34:19 10° NW 16:38:33 41° NNE 16:42:50 10° E visible
21 Nov - 18:15:55 10° WNW 18:20:05 37° SW 18:24:17 10° SSE visible
22 Nov - 10:01:47 10° SW 10:06:04 53° SE 10:10:20 10° ENE daylight
22 Nov - 11:43:48 10° W 11:47:45 32° NNW 11:51:44 10° NE daylight
22 Nov - 13:27:28 10° NW 13:30:20 17° N 13:33:13 10° NE daylight
22 Nov - 15:09:38 10° NW 15:13:08 22° NNE 15:16:39 10° ENE daylight
22 Nov - 16:50:46 10° NW 16:55:14 73° NE 16:59:46 10° ESE visible
22 Nov - 18:33:20 10° W 18:36:24 18° SW 18:39:30 10° S visible
23 Nov - 08:38:44 10° S 08:41:29 16° SE 08:44:13 10° E daylight
23 Nov - 10:18:11 10° WSW 10:22:35 77° NW 10:27:00 10° NE daylight
23 Nov - 12:01:11 10° WNW 12:04:39 22° NNW 12:08:09 10° NE daylight
23 Nov - 13:44:34 10° NW 13:47:25 17° N 13:50:18 10° NE daylight
23 Nov - 15:26:03 10° NW 15:30:02 31° NNE 15:34:03 10° E daylight
23 Nov - 17:07:22 10° WNW 17:11:46 57° SW 17:16:13 10° SE visible
